ハグ-ベル彗星

178P/Hug-Bell (2020)

English version
Home page
Updated on April 27, 2021

---------------------------------------------------------------------

・ プロフィール

・ 写真集

・ 軌道要素

Epoch 2020 July 10.0 TT = JDT 2459040.5
T 2020 July 16.61005 TT                                 Rudenko
q   1.8812763            (2000.0)            P               Q
n   0.14248701     Peri.  297.78493     +0.74249860     -0.64306808
a   3.6303837      Node   102.87390     +0.66210005     +0.66211844
e   0.4817968      Incl.   11.08955     +0.10158422     +0.38478906
P   6.92
From 1039 observations 1999 Dec. 26-2021 Mar. 11, mean residual 0".7.
     Nongravitational parameters A1 = +0.28, A2 = -0.0159.

・ 光度変化

        m1 = 13.0 + 5 logΔ + 11.0 log r(t - 60)

---------------------------------------------------------------------

軌道要素はM.P.E.C. 2021-F20に掲載されたものです。
光度グラフはComet for Windowsで作成したものです。

---------------------------------------------------------------------

Copyright(C) Seiichi Yoshida (comet@aerith.net). All rights reserved.